Tracking 19563 objects as of 20-Mar-2019
HD Live streaming from Space Station
objects crossing your sky now

FENGYUN 1C DEB

Track FENGYUN 1C DEB now!
10-day predictions


NORAD ID: 30357
Int'l Code: 1999-025ABU
Perigee: 850.4 km
Apogee: 922.5 km
Inclination: 99.1 °
Period: 102.6 minutes
Semi major axis: 7257 km
RCS: 0.042 m2 (small)
Launch date: May 10, 1999
Source: People's Republic of China (PRC)
Launch site: Taiyaun Space Center, China (TSC)

Note: This is SATELLITE DEBRIS
aabbcc
Your satellite tracking list
Your tracking list is empty




NASA's NSSDC Master Catalog

Two Line Element Set (TLE):
1 30357U 99025ABU 19078.53351806 +.00000241 +00000-0 +17886-3 0  9999
2 30357 099.0997 107.6924 0049649 348.7146 177.2054 14.04184076622716
Source of the keplerian elements: AFSPC